[[{"header":{"parameterUnit":"m.s-1","parameterCategory":1,"la1":30.2991,"la2":30.254,"lo1":-89.0895,"lo2":-89.0444,"dy":0.0017,"dx":0.0017,"nx":28,"ny":28,"refTime":"2025-08-14T21:00:00:Z","depth":0,"parameterNumber":2,"parameterNumberName":"U-component_of_WINDS"},"data":[0,0,0,0,0,0,0,0,0,0,0,0,0,0,0,0,0,0,0,0,0,0,0,0,0,0,0,0,0,0,0,0,0,0,0,0,0,0,0,0,0,0,0,0,0,0,0,0,0,0,0,0,0,0,0,0,0,0,1.8217,1.8217,0,1.8301,1.8302,1.8303,1.8289,1.8288,1.8286,1.8285,1.8373,1.8377,1.838,0,0,0,0,0,0,0,0,0,0,0,0,0,1.8042,1.8046,1.8216,1.8218,1.8219,1.8301,1.8302,1.8304,1.829,1.8288,1.8286,1.8284,1.8372,1.8376,1.8381,0,0,0,0,0,0,0,0,0,0,0,0,0,1.8122,1.8047,1.8216,1.8222,1.8223,1.8301,1.8302,1.8304,1.829,1.8288,1.8286,1.8284,1.837,1.8376,1.8381,1.846,0,0,1.8398,1.8401,0,0,0,0,0,0,0,0,1.8117,1.8128,1.822,1.8221,1.8223,1.8283,1.8273,1.8356,1.8291,1.8265,1.8285,1.8282,1.8345,1.8352,1.8373,1.8464,1.8468,1.8399,1.8402,1.8405,1.8406,0,0,0,0,0,0,0,1.8112,1.8124,1.825,1.8221,1.8223,1.822,1.8229,1.8289,1.8316,1.8267,1.8266,1.8276,1.8345,1.8368,1.8375,1.8469,1.8399,1.8404,1.8407,1.8409,1.8627,1.8629,0,0,0,0,0,0,1.8105,1.812,1.8247,1.8253,1.8164,1.8225,1.8235,1.8266,1.8315,1.8321,1.8278,1.8275,1.8359,1.8369,1.8378,1.8472,1.8404,1.841,1.8413,1.8625,1.8628,1.863,0,0,0,0,0,0,1.8101,1.8116,1.8244,1.8186,1.8202,1.823,1.8265,1.8269,1.8291,1.8324,1.8329,1.8296,1.8358,1.837,1.8439,1.8475,1.8412,1.8417,1.8622,1.8626,1.8629,1.8662,0,0,0,0,0,0,1.8096,1.8115,1.8145,1.8187,1.8205,1.8304,1.8267,1.8272,1.8301,1.8298,1.8342,1.8347,1.8357,1.8431,1.8445,1.8482,1.8422,1.8619,1.8624,1.8628,1.8658,1.8667,1.8674,0,0,0,0,0,1.809,1.8152,1.8147,1.8162,1.8244,1.8306,1.8316,1.8326,1.8304,1.8334,1.8355,1.8346,1.8469,1.8438,1.8454,1.8493,1.8616,1.8622,1.8627,1.8655,1.8665,1.8674,0,0,0,0,0,0,1.8114,1.8157,1.8152,1.8229,1.8264,1.8303,1.8342,1.8337,1.8379,1.8375,1.8386,1.8396,1.8466,1.8486,1.8451,1.8571,1.854,1.8548,1.8555,1.8565,1.8573,1.8567,1.8426,0,0,0,0,0,1.8128,1.8175,1.821,1.8275,1.8293,1.8314,1.8342,1.8346,1.8383,1.8398,1.8424,1.8459,1.8506,1.8537,1.8582,1.8661,1.867,1.8696,1.8703,1.871,1.8717,1.876,1.8771,1.8648,1.8648,1.8648,0,0,1.8159,1.8188,1.8217,1.8281,1.8308,1.8356,1.8327,1.8379,1.8415,1.8406,1.8472,1.8492,1.8533,1.8607,1.8641,1.8626,1.8753,1.8717,1.8722,1.8726,1.8767,1.8778,1.8789,1.8652,1.8652,1.8651,0,0,1.8238,1.8265,1.8321,1.8349,1.839,1.8404,1.8418,1.8458,1.8471,1.8537,1.8531,1.8573,1.8654,1.8683,1.8708,1.8797,1.879,1.8811,1.8853,1.8894,1.8904,1.8913,1.8944,1.8955,1.8819,1.8819,1.8819,0,1.827,1.8342,1.8351,1.8404,1.8432,1.8425,1.8481,1.8508,1.8562,1.8582,1.8564,1.8664,1.8691,1.8771,1.8793,1.8814,1.8829,1.8807,1.8902,1.8911,1.8919,1.8949,1.896,1.8821,1.8821,1.8821,1.882,0,1.838,1.843,1.847,1.8522,1.8554,1.8609,1.8626,1.8657,1.8659,1.8674,1.8742,1.8774,1.8825,1.8844,1.8846,1.8925,1.8914,1.8899,1.8868,1.8933,1.8961,1.8972,1.8824,1.8824,1.8823,1.8822,0,0,1.8478,1.8532,1.8547,1.857,1.8614,1.8653,1.8707,1.8756,1.8783,1.882,1.8865,1.8933,1.8919,1.8948,1.8953,1.899,1.9057,1.897,1.8971,1.8985,1.9144,1.9155,1.9168,1.9052,1.9055,1.9056,1.9141,0,1.8561,1.8656,1.8664,1.875,1.8795,1.8789,1.8835,1.8868,1.8884,1.8925,1.8942,1.899,1.8968,1.8985,1.9021,1.9041,1.9089,1.9035,1.9094,1.9097,1.9084,1.9183,1.9195,1.9272,1.9152,1.9154,1.9155,0,1.8671,1.871,1.88,1.8837,1.8856,1.8898,1.8943,1.8983,1.9019,1.9028,1.9059,1.9059,1.9115,1.9081,1.9157,1.912,1.9145,1.9158,1.9162,1.9167,1.913,1.9191,1.9298,1.9309,1.9172,1.9171,1.917,0,1.8733,1.8808,1.8871,1.8891,1.8936,1.8965,1.8986,1.9019,1.9048,1.9087,1.9106,1.9151,1.9176,1.9211,1.9224,1.9198,1.9299,1.9267,1.9308,1.9307,1.9329,1.9328,1.9441,1.9346,1.9345,1.9345,1.9345,0,1.8825,1.888,1.8899,1.8938,1.8999,1.9008,1.9069,1.9087,1.9117,1.9159,1.9156,1.9196,1.921,1.9252,1.9262,1.9323,1.9334,1.9343,1.9345,1.9343,1.9342,1.9359,1.9354,1.9348,1.9348,1.9347,1.9347,0,1.8904,1.892,1.8988,1.9024,1.9035,1.9078,1.9109,1.9146,1.9161,1.9214,1.9227,1.925,1.9299,1.9315,1.9374,1.9381,1.9452,1.9449,1.944,1.944,1.948,1.9475,1.9608,1.9626,1.9519,1.952,1.9521,0,1.8962,1.9004,1.9044,1.9072,1.9093,1.9138,1.9166,1.9176,1.9206,1.925,1.9282,1.933,1.9369,1.9448,1.947,1.9515,1.9514,1.9557,1.952,1.9517,1.9514,1.9511,1.9515,1.9564,1.9565,1.9566,1.9566,0,1.9063,1.9068,1.9109,1.9153,1.9187,1.9222,1.9256,1.9278,1.9293,1.9327,1.9377,1.9407,1.9467,1.9515,1.9561,1.9581,1.9577,1.9578,1.9589,1.9588,1.958,1.9584,1.9458,1.9575,1.9574,1.9573,1.9573,1.9572,1.9133,1.9169,1.9203,1.9249,1.9275,1.9306,1.9342,1.9361,1.9402,1.9451,1.9455,1.9508,1.9542,1.9603,1.9626,1.9668,1.9656,1.9673,1.9677,1.9681,1.9684,1.9574,1.9676,1.9676,1.9676,1.9676,1.9676,0,1.9233,1.9254,1.9295,1.9342,1.9378,1.9369,1.9406,1.9436,1.9483,1.9515,1.9553,1.961,1.9656,1.9681,1.9727,1.9755,1.9754,1.9767,1.9765,1.977,1.9693,1.9678,1.9767,1.9767,1.9767,1.9767,1.9767,1.9767,1.9289,1.935,1.9359,1.9432,1.9453,1.9504,1.9526,1.9555,1.958,1.9643,1.9681,1.9696,1.9726,1.9773,1.9815,1.9821,1.9838,1.9852,1.9857,1.9785,1.9775,1.9766,1.9752,1.9856,1.9856,1.9931,1.9931,1.9932]},{"header":{"parameterUnit":"m.s-1","parameterCategory":1,"la1":30.2991,"la2":30.254,"lo1":-89.0895,"lo2":-89.0444,"dy":0.0017,"dx":0.0017,"nx":28,"ny":28,"refTime":"2025-08-14T21:00:00:Z","depth":0,"parameterNumber":3,"parameterNumberName":"V-component_of_WINDS"},"data":[0,0,0,0,0,0,0,0,0,0,0,0,0,0,0,0,0,0,0,0,0,0,0,0,0,0,0,0,0,0,0,0,0,0,0,0,0,0,0,0,0,0,0,0,0,0,0,0,0,0,0,0,0,0,0,0,0,0,1.142,1.142,0,1.138,1.138,1.138,1.1339,1.1338,1.1338,1.1337,1.1295,1.1294,1.1294,0,0,0,0,0,0,0,0,0,0,0,0,0,1.1459,1.1459,1.142,1.142,1.1419,1.1381,1.138,1.1379,1.1339,1.1338,1.1338,1.1337,1.1295,1.1294,1.1294,0,0,0,0,0,0,0,0,0,0,0,0,0,1.1433,1.1459,1.142,1.1395,1.1392,1.1381,1.138,1.1379,1.1339,1.1338,1.1338,1.1337,1.1295,1.1295,1.1294,1.1304,0,0,1.1291,1.129,0,0,0,0,0,0,0,0,1.1435,1.1432,1.1399,1.1396,1.1393,1.1364,1.1378,1.1354,1.1339,1.1359,1.1337,1.1336,1.1318,1.1316,1.131,1.1302,1.13,1.1291,1.129,1.129,1.1289,0,0,0,0,0,0,0,1.1437,1.1433,1.1404,1.1398,1.1395,1.1384,1.138,1.1373,1.1344,1.1357,1.1354,1.135,1.1317,1.1311,1.1309,1.13,1.1291,1.129,1.1289,1.1289,1.1297,1.1298,0,0,0,0,0,0,1.1443,1.1435,1.1406,1.1403,1.1412,1.1384,1.1379,1.1374,1.1344,1.1338,1.1351,1.1349,1.1313,1.131,1.1307,1.1316,1.129,1.1289,1.1288,1.1296,1.1297,1.1298,0,0,0,0,0,0,1.1444,1.144,1.1407,1.1418,1.1413,1.1384,1.1379,1.1374,1.1368,1.1339,1.1333,1.1351,1.1312,1.1308,1.1305,1.1314,1.1288,1.1288,1.1295,1.1297,1.1298,1.1336,0,0,0,0,0,0,1.1445,1.1441,1.1445,1.1419,1.1413,1.1407,1.138,1.1374,1.1366,1.1363,1.1337,1.1332,1.1311,1.1307,1.1304,1.1313,1.1287,1.1294,1.1296,1.1297,1.1334,1.1338,1.1342,0,0,0,0,0,1.1446,1.1458,1.1446,1.1442,1.1418,1.1408,1.1404,1.138,1.1368,1.1371,1.1352,1.1333,1.1314,1.1307,1.1303,1.1312,1.1294,1.1295,1.1297,1.1332,1.1337,1.1342,0,0,0,0,0,0,1.1486,1.1454,1.144,1.1443,1.1429,1.1401,1.1405,1.1387,1.1375,1.1373,1.1343,1.1337,1.1337,1.1324,1.1317,1.132,1.1301,1.1302,1.1328,1.1333,1.1338,1.134,1.1286,0,0,0,0,0,1.1495,1.149,1.1462,1.1467,1.1461,1.1434,1.1429,1.1412,1.1395,1.1388,1.1369,1.1353,1.1343,1.1338,1.1327,1.1332,1.1325,1.1336,1.134,1.1343,1.1345,1.1345,1.1349,1.1304,1.1304,1.1304,0,0,1.1514,1.1495,1.1494,1.1475,1.1461,1.1456,1.1429,1.1425,1.142,1.1387,1.1383,1.1369,1.1349,1.1349,1.1348,1.1338,1.1356,1.1346,1.1349,1.1348,1.1347,1.1351,1.1355,1.1305,1.1305,1.1305,0,0,1.1545,1.1531,1.1534,1.152,1.15,1.1483,1.1483,1.1458,1.1447,1.1442,1.1417,1.1411,1.1395,1.1381,1.1372,1.1397,1.1378,1.1395,1.1417,1.1417,1.1421,1.1424,1.1431,1.1435,1.1396,1.1396,1.1396,0,1.157,1.1562,1.1537,1.1534,1.1526,1.1496,1.1498,1.1486,1.1464,1.1458,1.1447,1.1426,1.141,1.1406,1.1412,1.1406,1.1405,1.1398,1.1422,1.1425,1.1427,1.1434,1.1438,1.1398,1.1398,1.1398,1.1398,0,1.1594,1.1588,1.1593,1.1572,1.1564,1.1564,1.1537,1.1532,1.1516,1.1499,1.1493,1.1474,1.1458,1.1456,1.144,1.1449,1.1443,1.1428,1.1408,1.1434,1.144,1.1443,1.1401,1.1401,1.14,1.1399,0,0,1.1649,1.1614,1.1616,1.1606,1.1581,1.1576,1.1573,1.1558,1.1554,1.1539,1.1536,1.1522,1.1507,1.1497,1.1479,1.1479,1.1499,1.1463,1.1462,1.147,1.1507,1.1518,1.1522,1.1486,1.1487,1.1487,1.1508,0,1.1675,1.167,1.1647,1.1648,1.1642,1.1613,1.161,1.1595,1.1578,1.157,1.1552,1.1542,1.1524,1.1517,1.1517,1.1497,1.1506,1.1495,1.1482,1.1481,1.1487,1.1525,1.1538,1.1559,1.1511,1.1511,1.1511,0,1.1705,1.1693,1.1693,1.1668,1.1664,1.1663,1.1647,1.164,1.162,1.1608,1.1597,1.1576,1.1571,1.1553,1.1544,1.1537,1.153,1.1519,1.152,1.1517,1.1498,1.1523,1.1565,1.1568,1.1515,1.1515,1.1514,0,1.1745,1.1728,1.1725,1.1718,1.1688,1.1687,1.1675,1.1655,1.1647,1.1633,1.1627,1.1612,1.1604,1.1592,1.1568,1.1557,1.1561,1.1542,1.155,1.1551,1.1552,1.1552,1.1593,1.1549,1.1549,1.1549,1.1549,0,1.1776,1.1777,1.1742,1.1741,1.1741,1.1714,1.1715,1.1699,1.1682,1.1676,1.165,1.1645,1.1613,1.1604,1.1585,1.158,1.1576,1.1565,1.156,1.1567,1.1569,1.1562,1.156,1.1549,1.1549,1.1549,1.1549,0,1.182,1.1797,1.1792,1.1765,1.1758,1.1759,1.1734,1.1731,1.1713,1.1706,1.1703,1.1675,1.1662,1.1637,1.1618,1.1605,1.1604,1.1595,1.1611,1.1607,1.1617,1.1616,1.1654,1.1657,1.1612,1.1613,1.1613,0,1.1841,1.1841,1.1814,1.1808,1.1797,1.1789,1.1781,1.1754,1.1746,1.1723,1.1723,1.1709,1.1696,1.1678,1.1655,1.1639,1.1629,1.1644,1.1627,1.1634,1.1628,1.1628,1.1628,1.1647,1.1648,1.1648,1.1649,0,1.1881,1.1869,1.1859,1.1845,1.1836,1.1823,1.1808,1.1805,1.1774,1.1767,1.1755,1.1745,1.1725,1.1711,1.1692,1.1678,1.1658,1.1654,1.1655,1.1662,1.1671,1.1666,1.162,1.1654,1.1653,1.1653,1.1652,1.1652,1.1913,1.1912,1.1892,1.1881,1.1868,1.1855,1.185,1.1832,1.1821,1.1803,1.1788,1.1776,1.1755,1.1728,1.1715,1.1705,1.1695,1.1697,1.1697,1.1698,1.1701,1.1673,1.1702,1.1701,1.1701,1.1701,1.1701,0,1.1951,1.1937,1.1927,1.1908,1.1899,1.1882,1.1865,1.1858,1.1849,1.1832,1.182,1.1805,1.179,1.1766,1.1749,1.1746,1.1736,1.1742,1.1742,1.1739,1.1711,1.1711,1.175,1.175,1.175,1.175,1.175,1.175,1.197,1.1966,1.1952,1.1941,1.1926,1.1916,1.1907,1.1894,1.188,1.1865,1.1854,1.1838,1.1817,1.1799,1.1785,1.1778,1.1772,1.1781,1.1771,1.1746,1.1741,1.1736,1.1737,1.1781,1.1781,1.18,1.18,1.18]}]]